User: anonymous   Login
Location: Unspecified
(0.0000°N, 0.0000°E)
Time: 20:39:55
(UTC+00:00)
Language:

USA 234 - Orbit

View from above orbital plane
View from above orbital plane
View from above satellite
View from above satellite

Ground track
Ground track

The orbit data is extracted from the following two-line orbital elements,

1 38109U 12014A   18038.21400887 0.00000000  00000-0  00000-0 0    02
2 38109 122.9916   4.6341 0004000 115.3919 244.6080 13.41411639    01
Epoch (UTC): 07 February 2018 05:08:10
Eccentricity: 0.0004000
inclination: 122.9916°
perigee height: 1101 km
apogee height: 1107 km
right ascension of ascending node: 4.6341°
argument of perigee: 115.3919°
revolutions per day: 13.41411639
mean anomaly at epoch: 244.6080°
orbit number at epoch: 0

The dashed part of the orbit path shows where the satellite is in the earth's shadow,  

DLR